Change the Weather History Date:

Saturday, December 28, 2013

  Actual Average Record
Temperature  
Mean Temperature 43 °F -  
Max Temperature 53 °F 35 °F 69 °F (1984)
Min Temperature 33 °F 20 °F -7 °F (1961)
Degree Days  
Heating Degree Days 22    
Moisture  
Dew Point 32 °F    
Average Humidity 68    
Maximum Humidity 87    
Minimum Humidity 47    
Precipitation  
Precipitation 0.00 in - - ()
Sea Level Pressure  
Sea Level Pressure 29.99 in    
Wind  
Wind Speed 10 mph (SSW)    
Max Wind Speed 17 mph    
Max Gust Speed 24 mph    
Visibility 10 miles    
Events      
Averages and records for this station are not official NWS values.
T = Trace of Precipitation, MM = Missing Value Source: NWS Daily Summary

Daily Weather History Graph

Daily Weather History Graph

Search for Another Location

Airport or City:

Trip Planner

Search our weather history database for the weather conditions in past years. The results will help you decide how hot, cold, wet, or windy it might be!

Date:

Astronomy

Dec. 28, 2013 Rise Set
Actual Time 7:28 AM CST 4:46 PM CST
Civil Twilight 6:57 AM CST 5:17 PM CST
Nautical Twilight 6:23 AM CST 5:51 PM CST
Astronomical Twilight 5:50 AM CST 6:25 PM CST
Moon 3:05 AM CST (12/28) 1:38 PM CST (12/28)
Length of Visible Light 10h 20m
Length of Day
9h 18m
Waning Crescent, 19% of the Moon is Illuminated
Dec 28
Waning Crescent
Jan 1
New
Jan 7
First Quarter
Jan 15
Full
Jan 23
Last Quarter

Hourly Weather History & Observations

Time (CST) Temp. Windchill Dew Point Humidity Pressure Visibility Wind Dir Wind Speed Gust Speed Precip Events Conditions
12:15 AM 37.4 °F 30.8 °F 33.8 °F 87% 30.13 in 10.0 mi SW 9.2 mph - N/A   Clear
12:35 AM 37.4 °F 31.4 °F 32.0 °F 81% 30.13 in 10.0 mi SW 8.1 mph - N/A   Clear
12:55 AM 37.4 °F 30.8 °F 33.8 °F 87% 30.13 in 10.0 mi SSW 9.2 mph - N/A   Clear
1:15 AM 37.4 °F 32.1 °F 32.0 °F 81% 30.12 in 10.0 mi SSW 6.9 mph - N/A   Clear
1:35 AM 37.4 °F 30.8 °F 33.8 °F 87% 30.13 in 10.0 mi SSW 9.2 mph - N/A   Clear
1:55 AM 37.4 °F 30.3 °F 33.8 °F 87% 30.13 in 10.0 mi SSW 10.4 mph - N/A   Clear
2:15 AM 37.4 °F 29.8 °F 33.8 °F 87% 30.13 in 10.0 mi SSW 11.5 mph - N/A   Clear
2:35 AM 37.4 °F 29.8 °F 32.0 °F 81% 30.13 in 10.0 mi SSW 11.5 mph - N/A   Clear
2:55 AM 37.4 °F 30.3 °F 32.0 °F 81% 30.13 in 10.0 mi SW 10.4 mph - N/A   Clear
3:15 AM 35.6 °F 28.6 °F 32.0 °F 87% 30.13 in 10.0 mi SSW 9.2 mph - N/A   Clear
3:35 AM 37.4 °F 30.8 °F 32.0 °F 81% 30.12 in 10.0 mi SSW 9.2 mph - N/A   Clear
3:55 AM 37.4 °F 30.8 °F 32.0 °F 81% 30.11 in 10.0 mi SSW 9.2 mph - N/A   Clear
4:15 AM 37.4 °F 30.8 °F 32.0 °F 81% 30.10 in 10.0 mi SSW 9.2 mph - N/A   Clear
4:35 AM 37.4 °F 30.8 °F 32.0 °F 81% 30.09 in 10.0 mi SW 9.2 mph - N/A   Clear
4:55 AM 37.4 °F 30.3 °F 32.0 °F 81% 30.09 in 10.0 mi SW 10.4 mph - N/A   Clear
5:15 AM 35.6 °F 28.6 °F 32.0 °F 87% 30.09 in 10.0 mi SW 9.2 mph - N/A   Clear
5:35 AM 35.6 °F 28.6 °F 32.0 °F 87% 30.09 in 10.0 mi SSW 9.2 mph - N/A   Clear
5:55 AM 35.6 °F 28.6 °F 32.0 °F 87% 30.08 in 10.0 mi SSW 9.2 mph - N/A   Clear
6:15 AM 35.6 °F 28.6 °F 32.0 °F 87% 30.08 in 10.0 mi SSW 9.2 mph - N/A   Clear
6:35 AM 33.8 °F 27.0 °F 30.2 °F 87% 30.08 in 10.0 mi SSW 8.1 mph - N/A   Clear
6:55 AM 33.8 °F 27.0 °F 30.2 °F 87% 30.07 in 10.0 mi SSW 8.1 mph - N/A   Clear
7:15 AM 33.8 °F 27.0 °F 30.2 °F 87% 30.07 in 10.0 mi SW 8.1 mph - N/A   Clear
7:35 AM 33.8 °F 27.0 °F 30.2 °F 87% 30.07 in 10.0 mi SSW 8.1 mph - N/A   Clear
7:55 AM 33.8 °F 27.7 °F 30.2 °F 87% 30.06 in 10.0 mi SSW 6.9 mph - N/A   Clear
8:15 AM 35.6 °F 29.9 °F 30.2 °F 81% 30.06 in 10.0 mi SSW 6.9 mph - N/A   Clear
8:35 AM 37.4 °F 29.8 °F 32.0 °F 81% 30.06 in 10.0 mi SSW 11.5 mph - N/A   Clear
8:55 AM 37.4 °F 30.8 °F 32.0 °F 81% 30.06 in 10.0 mi SSW 9.2 mph 18.4 mph N/A   Clear
9:15 AM 39.2 °F 33.6 °F 32.0 °F 75% 30.06 in 10.0 mi SSW 8.1 mph - N/A   Clear
9:35 AM 39.2 °F 32.0 °F 32.0 °F 75% 30.06 in 10.0 mi SSW 11.5 mph - N/A   Clear
9:55 AM 41.0 °F 34.7 °F 32.0 °F 70% 30.06 in 10.0 mi SSW 10.4 mph - N/A   Clear
10:15 AM 41.0 °F 33.9 °F 32.0 °F 70% 30.05 in 10.0 mi SSW 12.7 mph 18.4 mph N/A   Clear
10:35 AM 42.8 °F 36.6 °F 32.0 °F 66% 30.04 in 10.0 mi SSW 11.5 mph - N/A   Clear
10:55 AM 44.6 °F 38.8 °F 33.8 °F 66% 30.03 in 10.0 mi SSW 11.5 mph 17.3 mph N/A   Clear
11:15 AM 44.6 °F 37.8 °F 33.8 °F 66% 30.02 in 10.0 mi SSW 15.0 mph - N/A   Clear
11:35 AM 46.4 °F 40.7 °F 33.8 °F 62% 30.02 in 10.0 mi SSW 12.7 mph 19.6 mph N/A   Clear
11:55 AM 48.2 °F - 33.8 °F 58% 30.01 in 10.0 mi SSW 17.3 mph - N/A   Clear
12:15 PM 48.2 °F - 33.8 °F 58% 30.00 in 10.0 mi SSW 15.0 mph - N/A   Clear
12:35 PM 50.0 °F - 33.8 °F 54% 29.98 in 10.0 mi SSW 17.3 mph - N/A   Clear
12:55 PM 50.0 °F - 33.8 °F 54% 29.97 in 10.0 mi SSW 13.8 mph - N/A   Clear
1:15 PM 51.8 °F - 33.8 °F 50% 29.96 in 10.0 mi SSW 12.7 mph - N/A   Clear
1:35 PM 51.8 °F - 33.8 °F 50% 29.95 in 10.0 mi SSW 12.7 mph - N/A   Clear
1:55 PM 53.6 °F - 33.8 °F 47% 29.94 in 10.0 mi SSW 12.7 mph 20.7 mph N/A   Clear
2:15 PM 53.6 °F - 33.8 °F 47% 29.94 in 10.0 mi South 10.4 mph 16.1 mph N/A   Clear
2:35 PM 53.6 °F - 33.8 °F 47% 29.94 in 10.0 mi South 8.1 mph 15.0 mph N/A   Clear
2:55 PM 53.6 °F - 33.8 °F 47% 29.94 in 10.0 mi South 10.4 mph - N/A   Clear
3:15 PM 51.8 °F - 33.8 °F 50% 29.93 in 10.0 mi South 10.4 mph - N/A   Clear
3:35 PM 51.8 °F - 33.8 °F 50% 29.93 in 10.0 mi South 10.4 mph - N/A   Clear
3:55 PM 50.0 °F - 32.0 °F 50% 29.92 in 10.0 mi South 10.4 mph - N/A   Clear
4:15 PM 50.0 °F - 32.0 °F 50% 29.91 in 10.0 mi South 8.1 mph - N/A   Clear
4:35 PM 48.2 °F - 32.0 °F 54% 29.91 in 10.0 mi SSW 10.4 mph - N/A   Clear
4:55 PM 48.2 °F - 32.0 °F 54% 29.91 in 10.0 mi South 10.4 mph - N/A   Clear
5:15 PM 48.2 °F - 32.0 °F 54% 29.91 in 10.0 mi South 11.5 mph - N/A   Clear
5:35 PM 48.2 °F - 32.0 °F 54% 29.91 in 10.0 mi South 16.1 mph - N/A   Clear
5:55 PM 48.2 °F - 32.0 °F 54% 29.90 in 10.0 mi South 11.5 mph 19.6 mph N/A   Clear
6:15 PM 48.2 °F - 32.0 °F 54% 29.90 in 10.0 mi South 12.7 mph - N/A   Clear
6:35 PM 46.4 °F 40.1 °F 32.0 °F 57% 29.89 in 10.0 mi South 15.0 mph 24.2 mph N/A   Clear
6:55 PM 46.4 °F 40.1 °F 30.2 °F 53% 29.89 in 10.0 mi SSW 15.0 mph - N/A   Clear
7:15 PM 46.4 °F 40.4 °F 30.2 °F 53% 29.89 in 10.0 mi SSW 13.8 mph 20.7 mph N/A   Clear
7:35 PM 46.4 °F 40.4 °F 30.2 °F 53% 29.89 in 10.0 mi SSW 13.8 mph 20.7 mph N/A   Clear
7:55 PM 44.6 °F 38.4 °F 30.2 °F 57% 29.88 in 10.0 mi SSW 12.7 mph - N/A   Clear
8:15 PM 44.6 °F 38.1 °F 30.2 °F 57% 29.87 in 10.0 mi SSW 13.8 mph 19.6 mph N/A   Clear
8:35 PM 44.6 °F 38.1 °F 30.2 °F 57% 29.87 in 10.0 mi SSW 13.8 mph - N/A   Clear
8:55 PM 44.6 °F 38.4 °F 30.2 °F 57% 29.86 in 10.0 mi SSW 12.7 mph - N/A   Clear
9:15 PM 42.8 °F 35.1 °F 30.2 °F 61% 29.86 in 10.0 mi SSW 16.1 mph 21.9 mph N/A   Clear
9:35 PM 42.8 °F 35.8 °F 30.2 °F 61% 29.86 in 10.0 mi SSW 13.8 mph - N/A   Clear
9:55 PM 42.8 °F 36.2 °F 30.2 °F 61% 29.87 in 10.0 mi SW 12.7 mph - N/A   Clear
10:15 PM 41.0 °F 33.9 °F 30.2 °F 65% 29.86 in 10.0 mi SW 12.7 mph - N/A   Clear
10:35 PM 41.0 °F 34.3 °F 30.2 °F 65% 29.85 in 10.0 mi SW 11.5 mph - N/A   Clear
10:55 PM 41.0 °F 34.3 °F 30.2 °F 65% 29.85 in 10.0 mi SW 11.5 mph - N/A   Clear
11:15 PM 41.0 °F 33.9 °F 30.2 °F 65% 29.84 in 10.0 mi SW 12.7 mph - N/A   Clear
11:35 PM 39.2 °F 32.5 °F 30.2 °F 70% 29.83 in 10.0 mi SW 10.4 mph - N/A   Clear
11:55 PM 39.2 °F 33.0 °F 30.2 °F 70% 29.83 in 10.0 mi SW 9.2 mph - N/A   Clear